Waarnemingen

Advertentie
Mijn weer
Metz-Nancy-Lorraine, Frankrijk (7093): temperatuur & dauwpunt: 19.09.2017 06:00:00 - 25.09.2017 06:00:00 (CEST)Metz-Nancy-Lorraine, Frankrijk (7093): windsnelheid & windstoten: 19.09.2017 06:00:00 - 25.09.2017 06:00:00 (CEST)Metz-Nancy-Lorraine, Frankrijk (7093): windrichting: 19.09.2017 06:00:00 - 25.09.2017 06:00:00 (CEST)Metz-Nancy-Lorraine, Frankrijk (7093): luchtdruk: 19.09.2017 06:00:00 - 25.09.2017 06:00:00 (CEST)Metz-Nancy-Lorraine, Frankrijk (7093): zicht: 19.09.2017 06:00:00 - 25.09.2017 06:00:00 (CEST)Metz-Nancy-Lorraine, Frankrijk (7093): Zonneschijnduur: 19.09.2017 06:00:00 - 25.09.2017 06:00:00 (CEST)Metz-Nancy-Lorraine, Frankrijk (7093): neerslag: 19.09.2017 06:00:00 - 25.09.2017 06:00:00 (CEST)
Datum & Tijd tt [°C] td [°C] ff [km/u] ff [kn] fx [km/u] fx [kn] dd ppp [hPa] vv [km] sd [min] rr [mm]
25.09.2017 06:00:00 8,9 8,1 7 4 16 9 NO 1020,5 0,1 0 0,0
25.09.2017 05:00:00 8,9 8,1 5 3 14 8 NNO 1020,9 1,8 0 0,0
25.09.2017 04:00:00 10,3 9,2 4 2 15 8 O 1020,8 2,8 0 0,0
25.09.2017 03:00:00 10,5 9,6 11 6 14 8 ONO 1021,0 2,6 0 0,0
25.09.2017 02:00:00 10,8 9,6 8 4 18 10 ONO 1021,4 3,5 0 0,0
25.09.2017 01:00:00 11,3 10,0 15 8 21 12 O 1021,5 5 0 0,0
25.09.2017 00:00:00 12,4 10,5 16 8 19 10 O 1021,6 8 0 0,0
24.09.2017 23:00:00 13,0 10,4 17 9 21 11 O 1021,6 12 0 0,0
24.09.2017 22:00:00 13,9 10,7 16 8 21 11 O 1021,7 17 0 0,0
24.09.2017 21:00:00 14,6 10,6 18 10 23 13 O 1021,5 20 0 0,0
24.09.2017 20:00:00 14,9 10,5 16 9 20 11 ONO 1021,1 12 0 0,0
24.09.2017 19:00:00 18,2 10,8 14 8 26 14 NO 1020,7 0,1 56 0,0
24.09.2017 18:00:00 20,2 10,0 16 9 27 14 NNO 1020,3 0,3 60 0,0
24.09.2017 17:00:00 20,3 8,3 10 5 21 11 NO 1020,4 0,7 60 0,0
24.09.2017 16:00:00 20,1 9,0 9 5 18 10 O 1020,6 20 46 0,0
24.09.2017 15:00:00 20,1 10,5 11 6 22 12 N 1020,9 13 53 0,0
24.09.2017 14:00:00 19,1 10,6 12 6 23 12 NNO 1021,3 22 36 0,0
24.09.2017 13:00:00 18,0 11,8 9 5 24 13 ONO 1021,5 14 47 0,0
24.09.2017 12:00:00 17,0 11,9 10 5 18 10 NO 1022,0 9 58 0,0
24.09.2017 11:00:00 15,5 12,3 6 4 14 7 ONO 1022,1 7 60 0,0
24.09.2017 10:00:00 12,0 10,4 3 1 9 5 NW 1022,6 4,2 60 0,0
24.09.2017 09:00:00 9,9 9,1 8 4 11 6 NNO 1022,5 2,6 60 0,0
24.09.2017 08:00:00 9,0 8,7 3 1 9 5 N 1022,4 0,2 13 0,0
24.09.2017 07:00:00 8,0 7,6 5 3 7 4 NNO 1022,2 0,1 0 0,0
24.09.2017 06:00:00 8,6 7,7 4 2 15 8 NNW 1021,8 2,6 0 0,0
24.09.2017 05:00:00 9,4 8,5 9 5 11 6 NO 1021,7 3,6 0 0,0
24.09.2017 04:00:00 9,4 8,5 3 2 7 4 NNO 1021,7 3,7 0 0,0
24.09.2017 03:00:00 10,1 8,4 6 3 9 5 NNO 1021,9 6 0 0,0
24.09.2017 02:00:00 10,5 8,8 4 2 11 6 NNO 1022,0 9 0 0,0
24.09.2017 01:00:00 11,3 9,2 9 5 10 6 ONO 1021,7 11 0 0,0
24.09.2017 00:00:00 12,2 9,4 3 2 14 7 W 1021,8 15 0 0,0
23.09.2017 23:00:00 13,7 10,1 12 7 18 10 O 1021,7 18 0 0,0
23.09.2017 22:00:00 14,5 10,7 16 9 19 11 O 1021,6 18 0 0,0
23.09.2017 21:00:00 14,8 11,0 13 7 18 10 ONO 1021,5 19 0 0,0
23.09.2017 20:00:00 15,9 11,3 11 6 20 11 ONO 1021,1 20 0 0,0
23.09.2017 19:00:00 17,6 11,2 12 6 22 12 NO 1020,7 19 0 0,0
23.09.2017 18:00:00 18,7 10,8 9 5 14 7 NNO 1020,6 31 0 0,0
23.09.2017 17:00:00 19,0 10,8 10 6 16 9 NO 1020,9 20 0 0,0
23.09.2017 16:00:00 19,2 10,5 8 4 17 9 NO 1021,2 19 21 0,0
23.09.2017 15:00:00 19,0 11,1 13 7 20 11 NNO 1021,8 20 23 0,0
23.09.2017 14:00:00 19,6 11,9 9 5 19 11 O 1021,7 14 60 0,0
23.09.2017 13:00:00 18,6 12,3 9 5 20 11 O 1022,4 12 60 0,0
23.09.2017 12:00:00 17,3 12,4 10 6 20 11 ONO 1022,9 13 60 0,0
23.09.2017 11:00:00 15,1 11,5 4 2 11 6 NNO 1023,4 11 60 0,0
23.09.2017 10:00:00 13,8 11,5 5 3 11 6 NNO 1023,5 10 60 0,0
23.09.2017 09:00:00 11,3 10,0 4 2 9 5 NNW 1023,7 4,5 60 0,0
23.09.2017 08:00:00 9,9 9,3 8 4 9 5 NO 1023,6 1,9 14 0,2
23.09.2017 07:00:00 10,0 9,1 4 2 7 4 NNW 1023,5 1,9 0 0,0
23.09.2017 06:00:00 10,6 9,5 4 2 7 4 N 1023,3 3,7 0 0,0
23.09.2017 05:00:00 10,8 9,4 3 2 7 4 N 1023,3 4,8 0 0,0
23.09.2017 04:00:00 11,4 9,0 5 3 6 4 N 1023,4 11 0 0,0
23.09.2017 03:00:00 12,2 9,8 5 3 7 4 N 1023,4 14 0 0,0
23.09.2017 02:00:00 12,6 10,0 3 2 6 4 NNW 1023,5 18 0 0,0
23.09.2017 01:00:00 13,0 9,8 5 3 8 5 WNW 1023,2 22 0 0,0
23.09.2017 00:00:00 13,6 9,6 4 2 13 7 WNW 1023,2 27 0 0,0
22.09.2017 23:00:00 14,7 9,9 9 5 18 10 WNW 1023,2 29 0 0,0
22.09.2017 22:00:00 15,5 10,3 5 3 19 10 NW 1022,7 18 0 0,0
22.09.2017 21:00:00 16,1 10,2 9 5 16 9 NW 1022,2 44 0 0,0
22.09.2017 20:00:00 17,0 10,4 13 7 20 11 NW 1021,5 48 0 0,0
22.09.2017 19:00:00 18,9 9,9 11 6 18 10 NW 1020,8 45 51 0,0
22.09.2017 18:00:00 20,7 9,3 8 4 19 11 WNW 1020,2 48 60 0,0
22.09.2017 17:00:00 20,7 8,7 12 6 21 11 W 1020,2 20 55 0,0
22.09.2017 16:00:00 20,2 10,0 8 4 20 11 WNW 1020,3 7 48 0,0
22.09.2017 15:00:00 20,6 10,4 7 4 16 9 ZW 1020,2 26 60 0,0
22.09.2017 14:00:00 19,7 10,1 5 3 13 7 ZW 1020,4 16 58 0,0
22.09.2017 13:00:00 18,3 10,4 5 3 11 6 W 1020,7 9 60 0,0
22.09.2017 12:00:00 16,9 10,7 4 2 11 6 W 1020,9 17 60 0,0
22.09.2017 11:00:00 14,9 10,7 3 1 8 5 W 1020,9 14 60 0,0
22.09.2017 10:00:00 12,2 9,8 3 1 13 7 ZW 1021,1 9 60 0,0
22.09.2017 09:00:00 11,1 8,8 5 3 8 5 ZO 1020,9 7 60 0,0
22.09.2017 08:00:00 7,4 6,8 4 2 11 6 ZO 1021,2 6 13 0,0
22.09.2017 07:00:00 7,6 6,5 6 3 8 4 ZO 1020,6 4,6 0 0,0
22.09.2017 06:00:00 7,5 6,6 6 3 6 4 Z 1020,5 7 0 0,0
22.09.2017 05:00:00 8,2 7,0 6 3 10 6 ZO 1020,5 9 0 0,0
22.09.2017 04:00:00 8,9 7,0 6 3 10 6 OZO 1020,3 12 0 0,0
22.09.2017 03:00:00 10,1 8,0 10 5 11 6 OZO 1020,4 14 0 0,0
22.09.2017 02:00:00 10,7 8,1 8 5 10 5 O 1020,5 18 0 0,0
22.09.2017 01:00:00 11,3 7,6 4 2 5 3 ONO 1020,2 20 0 0,0
22.09.2017 00:00:00 10,9 7,6 3 1 18 10 WNW 1020,2 21 0 0,0
21.09.2017 23:00:00 11,2 7,9 16 9 17 9 OZO 1020,0 25 0 0,0
21.09.2017 22:00:00 11,2 7,5 14 8 17 9 OZO 1020,0 30 0 0,0
21.09.2017 21:00:00 12,5 7,8 14 8 16 9 OZO 1019,8 37 0 0,0
21.09.2017 20:00:00 14,4 8,1 13 7 14 8 O 1019,2 34 10 0,0
21.09.2017 19:00:00 16,6 8,8 10 5 18 10 O 1018,8 58 60 0,0
21.09.2017 18:00:00 18,2 7,9 10 5 19 10 O 1018,6 51 60 0,0
21.09.2017 17:00:00 18,4 7,8 8 4 21 11 OZO 1018,6 46 60 0,0
21.09.2017 16:00:00 18,3 6,8 9 5 21 12 OZO 1018,9 33 60 0,0
21.09.2017 15:00:00 18,0 8,5 11 6 20 11 OZO 1019,5 19 60 0,0
21.09.2017 14:00:00 17,3 9,0 8 5 19 11 ZO 1019,9 9 60 0,0
21.09.2017 13:00:00 16,0 9,4 7 4 15 8 O 1020,6 19 60 0,0
21.09.2017 12:00:00 14,1 10,1 7 4 15 8 ZO 1021,3 12 60 0,0
21.09.2017 11:00:00 10,8 9,4 7 4 13 7 O 1021,9 1,9 60 0,0
21.09.2017 10:00:00 8,9 8,3 3 2 8 4 NNO 1022,4 7 58 0,0
21.09.2017 09:00:00 5,3 5,0 4 2 7 4 W 1022,7 0,2 21 0,0
21.09.2017 08:00:00 4,7 4,3 2 1 10 6 Z 1022,6 0,1 0 0,0
21.09.2017 07:00:00 5,8 5,4 6 3 17 9 O 1022,4 0,6 0 0,0
21.09.2017 06:00:00 6,6 6,0 15 8 16 9 OZO 1022,2 3,6 0 0,0
21.09.2017 05:00:00 6,2 5,5 4 2 11 6 O 1022,4 3,8 0 0,0
21.09.2017 04:00:00 7,6 6,5 4 2 17 9 O 1022,5 7 0 0,0
21.09.2017 03:00:00 7,8 7,2 9 5 14 7 ZO 1022,5 9 0 0,0
21.09.2017 02:00:00 7,8 6,7 4 2 12 6 ZZW 1022,8 11 0 0,0
21.09.2017 01:00:00 7,8 7,0 11 6 11 6 Z 1022,8 11 0 0,0
21.09.2017 00:00:00 8,4 6,0 8 5 11 6 OZO 1022,8 23 0 0,0
20.09.2017 23:00:00 8,6 5,2 4 2 6 3 ONO 1022,8 34 0 0,0
20.09.2017 22:00:00 10,8 6,5 3 2 7 4 NO 1022,6 49 0 0,0
20.09.2017 21:00:00 11,9 6,4 4 2 10 5 W 1022,6 58 0 0,0
20.09.2017 20:00:00 13,2 6,1 6 3 11 6 ZW 1022,2 60 12 0,0
20.09.2017 19:00:00 15,6 6,3 8 4 22 12 W 1021,6 59 43 0,0
20.09.2017 18:00:00 16,3 7,0 9 5 27 14 ZW 1021,6 54 36 0,0
20.09.2017 17:00:00 15,4 8,2 11 6 16 9 ZW 1021,8 54 3 0,0
20.09.2017 16:00:00 14,9 7,9 9 5 25 14 WZW 1022,2 44 15 0,0
20.09.2017 15:00:00 14,8 7,8 11 6 20 11 ZW 1022,6 28 16 0,0
20.09.2017 14:00:00 15,2 8,2 10 6 22 12 W 1022,9 30 32 0,0
20.09.2017 13:00:00 14,5 8,7 12 7 24 13 WZW 1023,3 19 29 0,0
20.09.2017 12:00:00 12,3 8,8 13 7 22 12 W 1023,9 8 8 0,0
20.09.2017 11:00:00 10,6 9,7 13 7 18 10 W 1023,9 10 0 0,0
20.09.2017 10:00:00 9,8 9,5 11 6 16 9 WZW 1024,0 3,2 0 0,0
20.09.2017 09:00:00 9,5 9,2 8 4 15 8 WZW 1023,6 3,8 0 0,0
20.09.2017 08:00:00 8,9 8,6 12 7 16 9 WZW 1023,2 3,9 0 0,0
20.09.2017 07:00:00 8,6 8,3 11 6 18 10 ZW 1023,1 0,4 0 0,0
20.09.2017 06:00:00 8,6 8,2 13 7 16 9 ZW 1022,7 4,6 0 0,0
20.09.2017 05:00:00 8,9 8,6 10 5 13 7 Z 1022,8 6 0 0,0
20.09.2017 04:00:00 8,7 8,4 9 5 13 7 ZZW 1022,8 5 0 0,0
20.09.2017 03:00:00 8,1 7,5 9 5 11 6 ZZW 1022,9 7 0 0,0
20.09.2017 02:00:00 9,3 8,2 6 3 13 7 ZW 1022,6 15 0 0,0
20.09.2017 01:00:00 7,8 7,0 11 6 13 7 ZW 1023,0 16 0 0,0
20.09.2017 00:00:00 7,8 6,9 5 3 9 5 ZZW 1022,9 23 0 0,0
19.09.2017 23:00:00 9,8 8,1 5 3 13 7 W 1022,6 32 0 0,0
19.09.2017 22:00:00 11,5 8,5 10 5 18 10 WZW 1022,1 38 0 0,0
19.09.2017 21:00:00 11,4 8,6 9 5 14 8 WZW 1021,7 44 0 0,0
19.09.2017 20:00:00 12,0 8,1 9 5 28 15 WNW 1020,8 58 7 0,0
19.09.2017 19:00:00 13,8 8,2 13 7 30 16 WNW 1020,1 56 24 0,0
19.09.2017 18:00:00 14,6 8,3 19 10 28 15 WNW 1019,6 31 33 0,0
19.09.2017 17:00:00 13,7 10,5 17 9 36 19 NW 1019,4 18 19 0,0
19.09.2017 16:00:00 15,6 8,6 22 12 35 19 NW 1019,1 45 49 0,0
19.09.2017 15:00:00 13,4 8,0 21 12 32 18 WNW 1019,3 38 33 0,0
19.09.2017 14:00:00 13,6 8,2 16 9 31 17 WNW 1019,3 20 20 0,0
19.09.2017 13:00:00 12,9 8,6 12 6 29 15 NW 1019,4 20 7 0,0
19.09.2017 12:00:00 11,6 8,8 18 10 27 15 WNW 1019,5 39 0 0,0
19.09.2017 11:00:00 11,2 9,3 14 7 21 11 WNW 1019,3 18 0 0,0
19.09.2017 10:00:00 10,3 8,7 11 6 16 9 W 1019,2 17 0 0,0
19.09.2017 09:00:00 10,0 8,8 9 5 16 9 WZW 1018,8 13 0 0,0
19.09.2017 08:00:00 9,6 8,8 11 6 15 8 WZW 1018,5 11 0 0,0
19.09.2017 07:00:00 9,5 8,6 8 4 20 11 W 1018,3 10 0 0,0
19.09.2017 06:00:00 9,4 8,6 13 7 18 10 WZW 1018,1 12 0 0,0

tt = temperatuur
td = dauwpunt
ff = windsnelheid
fx = windstoten
dd = windrichting
ppp = luchtdruk
vv = zicht
sd = Zonneschijnduur
rr = neerslag

Weerstations in de omgeving